RH
9 9 9 8 8 8 8 8 8 8 8 7 6 6 5 4 5 4 5 6 7 6 4 3 3 4 3 3 3 3 4 3 4 7 10 13 17 18 19 20 21 22 23 24 27 29 28 31 34 37 41 45 49 50 49 51 51 51 53 54 53 56 56 57 58 54 53 57 61 62 65 70 70 69 68 68 70 71 71 73 78 78 77 79 82 86 86 83
9 9 9 9 9 8 8 8 8 8 8 7 7 6 5 4 4 4 5 7 7 6 5 4 3 3 3 3 3 3 3 3 4 5 9 14 15 16 19 21 21 23 23 25 25 24 26 29 31 35 40 45 47 46 46 48 50 51 51 50 53 57 55 55 56 54 54 58 59 61 64 66 68 68 67 67 68 68 68 70 74 77 76 77 79 85 89 87
9 9 9 9 9 8 8 8 7 7 8 8 7 6 5 5 4 4 5 7 8 7 5 4 3 3 3 3 3 3 3 3 3 4 8 12 13 15 19 21 21 22 23 25 23 23 26 28 30 33 39 43 43 43 45 46 49 51 48 49 52 54 54 54 55 54 53 56 59 61 63 63 63 65 66 68 69 67 65 67 72 75 75 77 78 82 87 89
9 9 9 9 8 8 8 8 7 7 7 7 7 7 6 4 4 4 5 7 8 8 6 4 3 3 3 3 3 3 3 3 3 3 6 10 11 14 19 20 21 22 23 23 22 25 26 27 29 32 39 44 41 41 44 45 48 49 48 50 51 52 53 54 55 55 54 55 58 61 62 62 61 62 64 65 68 67 65 66 70 73 72 73 75 78 85 90
9 9 9 9 9 8 8 8 7 7 7 7 7 7 6 5 4 4 6 7 8 8 6 4 3 3 3 3 3 3 3 3 2 2 4 8 10 14 19 19 21 22 21 23 24 26 26 26 30 33 38 41 40 41 42 43 44 46 48 48 50 52 53 54 55 56 55 54 56 59 60 60 59 60 61 63 65 65 64 65 67 71 70 71 74 76 81 89
9 9 10 9 9 8 8 8 7 7 7 7 7 7 6 5 5 5 6 7 8 8 6 3 4 4 4 3 3 3 3 3 3 3 5 7 9 13 17 19 21 22 21 23 24 26 25 26 31 34 36 35 37 39 38 40 43 44 46 47 49 51 51 53 54 55 56 55 56 58 58 58 57 59 61 63 65 64 63 63 65 69 70 71 74 75 79 88
9 9 9 10 9 9 8 8 8 7 7 7 7 7 6 5 5 5 6 8 8 8 6 4 4 4 4 3 3 4 3 5 5 4 5 8 10 13 16 17 21 23 23 24 25 25 24 26 29 30 33 34 35 37 36 38 41 45 47 48 50 50 51 53 54 55 55 55 57 58 59 58 58 59 59 61 63 63 64 64 65 68 70 71 74 77 80 87
9 9 9 10 10 9 8 8 8 7 7 7 7 7 6 5 5 5 7 8 8 6 5 4 4 4 4 3 3 4 3 5 6 6 6 8 11 13 14 16 20 24 24 24 26 25 23 24 26 26 33 34 33 38 38 40 43 46 49 49 50 51 52 53 53 55 55 57 58 57 59 60 59 57 57 60 59 60 63 65 65 66 69 72 75 81 82 83
9 9 9 9 9 9 8 8 8 7 7 7 7 7 6 6 5 5 7 9 8 5 4 4 4 4 4 3 4 4 3 5 6 6 6 8 11 13 13 15 20 23 25 25 25 25 22 23 24 27 32 33 35 40 38 41 46 46 48 50 50 52 53 53 52 52 54 57 57 58 61 60 57 56 56 57 58 59 61 64 64 65 68 71 74 80 83 83
8 9 9 9 9 9 8 8 8 8 7 7 7 7 7 6 6 6 7 9 8 5 4 4 4 4 4 3 5 4 4 5 6 7 7 9 11 13 13 16 20 22 24 24 24 24 22 24 26 27 30 32 35 39 38 41 45 47 48 50 49 51 51 52 52 52 53 56 56 59 62 58 55 56 56 55 56 58 60 62 63 64 66 70 74 77 79 80
9 9 9 9 9 9 9 8 8 8 8 8 8 7 7 7 6 6 7 9 8 5 4 4 4 4 4 4 5 5 5 5 6 6 7 9 12 14 15 17 19 21 23 24 25 23 22 24 26 26 28 28 31 38 41 42 46 47 47 48 47 46 50 51 52 51 51 55 56 58 59 56 55 56 56 54 54 55 56 60 61 62 65 68 74 77 77 75
9 9 9 9 9 9 9 8 8 8 8 8 8 7 7 7 6 6 7 9 8 5 5 4 4 4 4 5 4 4 6 8 7 6 6 8 11 15 16 18 19 21 22 23 25 23 21 22 24 25 25 26 33 39 43 44 47 46 45 49 47 46 51 51 52 52 51 54 55 57 57 55 57 57 56 54 54 54 53 56 59 61 64 67 72 78 78 76
9 8 9 9 9 9 9 8 8 8 8 8 8 8 7 7 7 6 7 9 9 6 5 5 4 4 5 5 3 3 6 8 7 6 7 8 11 14 16 18 18 20 21 22 24 22 20 21 23 24 22 28 36 39 41 42 43 44 43 49 50 48 51 50 51 53 52 52 54 57 55 55 59 58 56 55 53 53 53 53 55 58 63 66 70 76 79 79
8 8 8 9 9 9 9 8 8 8 8 8 8 7 7 7 7 6 7 9 9 7 5 5 5 5 5 4 3 3 6 7 8 8 7 8 10 13 15 16 17 18 19 21 22 20 20 21 22 23 23 30 38 38 40 40 41 44 43 48 51 48 50 51 50 53 53 53 53 55 54 55 59 57 56 57 54 52 52 52 52 54 59 63 67 72 78 80
8 8 8 8 8 8 9 8 8 8 8 8 8 8 7 7 7 6 7 8 10 8 6 6 6 6 7 5 3 4 6 7 8 8 7 7 9 13 14 15 16 17 18 20 21 20 20 21 22 26 29 33 37 39 41 41 44 46 43 48 51 48 51 51 49 51 53 55 53 53 56 58 59 57 56 57 56 53 51 51 51 51 53 57 63 67 74 78
8 8 8 8 8 9 8 8 8 8 8 8 8 8 7 7 7 7 7 8 9 9 7 7 7 8 8 6 4 5 6 7 8 8 8 7 7 11 14 14 15 15 17 19 20 20 21 21 23 29 32 36 39 40 41 44 48 47 45 48 50 49 51 49 48 49 50 53 53 52 58 61 58 58 57 56 57 55 51 50 50 50 50 52 57 62 68 74
9 8 8 8 8 8 9 8 8 8 8 8 8 8 8 8 7 7 7 8 9 10 9 7 8 9 7 6 5 5 6 8 8 7 7 7 6 8 11 13 14 15 17 19 20 20 21 21 24 28 29 34 39 39 42 46 47 47 45 45 46 47 48 48 48 49 49 51 52 52 58 62 59 59 59 57 57 55 52 51 50 49 49 49 52 56 61 68
9 9 8 8 8 9 9 8 8 8 8 9 8 8 8 8 8 8 8 9 9 10 9 8 9 8 6 6 5 6 7 8 8 8 7 7 6 6 8 12 15 17 17 19 18 18 20 20 22 25 26 32 37 39 42 44 42 43 42 41 43 44 45 47 47 48 50 51 52 54 58 61 61 60 58 57 57 54 51 50 51 50 48 48 48 49 54 61
8 8 8 8 8 8 9 9 8 8 9 9 9 8 8 9 11 11 11 11 11 10 11 11 9 7 7 6 6 6 7 7 8 8 8 7 7 6 7 9 12 15 17 17 17 17 18 19 20 22 26 33 36 37 38 37 38 38 37 37 40 42 43 46 46 48 51 52 54 55 57 61 61 59 58 56 55 52 51 50 50 50 50 49 48 47 50 56
7 7 7 7 7 8 8 9 9 9 9 9 9 9 9 11 13 14 14 13 12 11 11 12 12 9 9 8 7 7 7 7 8 8 9 8 7 6 7 8 9 11 14 17 17 16 16 18 19 22 27 33 36 36 32 30 35 36 34 34 37 39 41 43 47 49 49 51 55 56 58 61 60 59 59 55 54 53 52 51 50 50 50 51 50 49 49 55
7 6 7 6 6 7 8 8 9 9 10 10 10 9 9 10 11 12 12 11 10 10 10 11 11 10 10 9 8 8 8 8 8 9 9 9 8 7 7 7 7 9 11 13 14 14 15 16 18 25 29 32 34 33 27 27 32 32 32 32 34 38 40 42 47 51 49 48 54 57 57 59 59 60 59 55 56 55 53 52 50 49 50 51 52 51 52 54
6 6 7 6 6 7 7 8 8 9 11 12 11 11 11 10 11 11 11 11 9 9 9 9 10 10 10 9 8 8 9 9 8 9 9 9 8 7 7 6 7 9 9 10 12 13 14 14 19 27 30 30 31 30 28 28 28 29 33 34 35 38 40 43 46 50 50 48 53 57 55 57 59 59 59 57 57 55 51 50 49 47 48 50 51 52 53 54
7 7 6 6 7 7 8 8 8 10 11 12 12 12 12 12 12 11 11 11 11 9 9 9 9 10 10 9 9 9 9 10 9 8 8 8 8 8 7 6 6 8 8 9 11 12 12 14 21 28 28 29 30 30 30 29 26 27 33 34 35 37 38 40 45 49 51 50 54 57 55 56 56 56 57 55 54 54 51 49 48 47 47 49 50 51 52 53
7 6 7 7 7 7 8 8 9 10 10 10 12 12 11 12 12 11 11 12 11 10 10 9 9 10 10 9 9 9 9 10 9 8 7 8 8 7 7 6 6 6 7 9 10 11 11 15 20 25 27 28 29 30 30 28 26 26 29 31 32 35 36 38 45 50 53 53 55 57 57 55 53 54 54 54 56 55 52 49 48 48 47 48 50 50 51 52
7 7 6 6 7 8 8 8 9 10 9 10 12 12 12 12 12 11 12 14 14 12 11 9 10 10 9 9 10 10 10 10 9 8 8 7 7 7 7 7 6 6 7 8 9 10 11 15 19 20 24 26 27 29 28 26 25 25 26 28 28 32 37 40 46 51 55 58 56 56 59 56 53 54 55 57 60 58 55 52 50 49 49 49 51 52 53 52
8 7 7 6 7 8 8 9 10 9 9 11 12 13 12 13 14 12 15 20 18 14 12 10 11 10 9 10 10 10 11 10 9 8 8 7 7 7 8 7 6 7 6 7 9 9 10 14 17 18 21 23 25 27 26 25 25 24 24 26 27 32 39 42 45 51 57 58 55 53 57 57 53 54 56 59 62 60 58 57 54 52 50 50 52 54 53 51
8 8 7 7 8 9 9 9 9 9 10 11 12 13 12 14 15 13 18 24 20 15 13 12 11 10 10 11 11 11 12 11 9 9 8 8 8 7 8 8 6 6 7 7 8 9 10 13 16 18 19 22 24 25 25 25 24 23 23 25 29 33 38 41 44 51 55 55 55 55 57 57 54 53 56 60 62 62 58 56 56 54 52 53 54 55 54 51
8 8 7 7 9 11 10 10 10 9 10 10 10 12 13 15 16 15 21 26 23 19 15 12 11 11 11 12 12 10 11 11 10 10 9 8 8 8 8 9 7 7 8 8 8 9 10 13 16 17 19 22 24 24 24 24 21 21 24 27 30 33 38 42 45 52 54 52 55 56 56 57 55 53 56 60 62 61 57 53 55 56 55 55 54 54 53 51
8 8 7 8 10 12 11 10 10 9 10 10 10 12 14 14 15 18 24 29 28 24 19 14 13 13 12 13 13 10 11 11 10 11 11 9 9 8 9 9 8 8 8 7 8 8 9 13 15 15 19 23 23 23 22 21 19 21 26 29 30 34 40 45 48 52 53 52 52 53 54 56 56 53 54 58 61 61 56 52 55 56 57 57 54 51 50 50
8 8 7 9 12 13 11 10 10 10 11 10 10 13 13 15 19 23 26 30 31 28 24 20 17 15 14 14 14 12 11 11 11 12 12 11 10 9 9 9 9 9 9 8 9 9 9 11 13 14 20 23 22 23 21 19 20 22 27 28 31 38 44 48 53 53 52 55 51 49 52 53 52 52 52 55 58 57 54 55 57 57 57 57 53 50 50 50
8 7 8 11 14 13 11 11 10 11 11 10 12 13 12 17 24 26 27 30 32 30 27 25 22 19 16 15 16 15 13 11 11 12 13 13 12 11 11 10 10 10 11 9 8 10 10 11 12 13 19 22 24 25 22 20 21 23 27 27 33 45 49 52 56 53 54 57 51 47 50 52 52 48 47 51 56 57 57 57 59 60 58 55 53 51 50 51
8 8 10 13 15 13 12 11 12 12 12 11 12 12 15 20 23 24 29 32 33 34 31 27 25 21 18 17 17 17 15 13 12 13 14 14 14 13 13 13 12 11 12 11 10 10 10 11 12 13 15 19 24 27 24 22 23 24 27 28 37 50 52 53 55 53 54 53 49 48 49 53 52 44 43 48 52 57 59 58 59 62 59 54 53 52 51 52
9 9 12 15 15 13 13 12 11 12 12 12 12 13 20 24 21 24 30 31 33 35 32 29 27 23 20 18 18 17 16 14 13 13 14 14 15 14 14 14 13 11 12 13 11 11 11 12 12 13 14 16 20 25 25 24 24 24 26 27 36 48 52 56 57 53 51 48 47 50 50 51 49 43 46 48 49 55 58 56 56 58 58 55 52 52 52 51
9 10 15 18 15 14 13 12 11 12 13 12 13 16 20 21 20 28 33 33 36 36 33 31 30 26 22 21 19 17 16 15 13 13 14 14 14 14 15 14 14 12 12 12 11 11 12 13 13 12 13 14 16 20 22 24 24 24 26 26 31 38 43 50 52 48 48 47 46 48 48 49 45 44 50 51 52 55 54 54 55 53 55 54 52 53 51 47
10 13 19 21 17 15 15 13 12 12 13 12 16 20 21 20 20 28 34 36 36 36 34 33 32 30 27 25 22 19 17 15 14 14 14 13 12 13 13 13 14 13 12 12 12 11 11 13 13 11 12 14 15 17 19 22 23 24 26 27 30 32 34 40 42 42 45 46 49 49 46 48 46 45 54 56 55 56 53 54 55 51 52 52 52 54 51 46
12 17 25 25 20 18 17 15 12 12 13 14 16 19 21 20 19 26 33 33 32 34 37 36 33 31 30 27 25 22 19 16 15 14 13 13 13 12 13 12 12 12 12 12 13 12 11 12 12 10 11 13 15 18 18 19 24 27 28 29 30 31 33 36 38 42 43 41 47 49 46 48 45 45 54 57 57 58 57 56 56 53 52 50 51 53 51 48
15 21 27 29 25 20 17 16 13 12 13 14 16 19 21 19 17 25 31 31 30 34 39 39 35 31 29 27 25 23 21 19 16 14 14 14 13 13 13 13 12 11 10 11 12 12 11 11 12 11 12 14 16 17 17 17 21 26 28 28 29 30 34 34 38 46 44 41 47 49 47 49 47 46 53 56 58 60 59 58 58 56 53 52 51 51 52 50
17 23 29 31 28 21 17 15 13 13 14 16 20 24 24 19 17 25 29 29 30 35 39 40 36 32 30 28 27 23 21 20 18 16 14 14 14 13 13 13 13 12 10 10 11 12 11 11 13 14 14 16 16 15 17 17 18 21 23 25 26 29 32 31 35 42 43 45 50 48 48 49 48 48 51 53 57 59 59 58 57 55 54 53 53 53 53 52
19 27 32 33 28 22 19 16 15 15 15 18 22 23 20 18 20 28 31 30 32 38 41 40 37 35 32 30 28 24 21 19 18 17 15 15 16 16 15 14 13 13 12 11 11 11 11 12 14 15 15 16 16 15 16 16 16 17 20 22 24 27 29 30 34 36 38 46 48 43 46 48 46 48 49 49 53 56 57 58 57 56 56 55 54 53 53 52
19 30 35 34 29 24 22 19 17 18 18 21 27 26 21 18 24 33 35 32 34 39 42 41 38 36 34 32 29 25 22 20 18 17 16 16 18 18 18 17 16 16 15 13 12 12 11 11 14 15 14 15 16 15 15 15 15 16 18 21 23 24 25 27 31 32 34 45 48 41 44 46 45 48 48 46 49 53 55 56 57 57 58 57 56 55 53 53
20 31 36 35 31 27 24 22 21 24 26 28 31 30 26 23 29 37 38 35 36 37 39 40 39 37 35 36 32 27 24 22 19 18 18 18 19 19 18 18 19 18 17 16 14 13 12 12 14 14 13 14 16 15 15 15 15 16 18 19 20 23 25 26 32 33 34 42 46 41 40 42 44 46 47 46 48 50 52 53 55 56 56 57 56 55 54 53
22 30 34 36 36 31 27 27 28 29 30 31 30 29 28 27 32 37 37 38 39 39 38 40 42 40 38 37 35 30 27 25 21 20 20 20 19 20 19 19 19 19 18 18 16 15 15 13 13 13 13 13 15 15 15 15 15 16 18 19 20 22 24 27 30 35 37 40 42 39 38 40 43 45 47 47 47 47 49 51 53 54 55 55 55 54 54 54
24 28 32 37 39 35 32 35 37 36 35 33 33 31 29 31 34 36 38 40 41 41 42 43 43 42 41 39 36 33 30 28 25 24 24 23 21 21 21 20 19 19 19 18 16 15 16 14 13 15 16 17 17 17 18 17 17 18 19 19 20 21 23 26 30 35 38 40 40 39 39 40 42 46 48 45 44 45 47 49 52 54 54 53 53 52 52 53
27 29 32 37 39 36 36 40 42 41 40 37 35 34 31 31 34 37 40 41 40 41 44 46 46 44 42 40 38 34 31 31 29 26 26 25 23 22 21 20 19 19 18 17 16 16 15 15 15 14 15 16 18 20 22 20 20 20 21 20 21 24 25 26 31 35 36 37 37 38 39 40 41 45 46 44 43 45 47 49 52 53 53 52 51 51 51 52
30 33 34 35 39 39 39 42 42 43 44 41 38 37 33 33 35 36 39 40 40 42 44 47 47 45 44 41 38 35 33 32 31 29 28 28 26 23 22 20 19 18 18 17 17 17 16 16 15 13 14 17 20 25 25 24 23 21 22 23 23 25 26 26 31 34 32 34 37 38 39 39 41 44 45 43 43 46 48 49 50 51 52 52 50 49 48 48
34 38 39 38 39 41 43 43 42 44 45 45 43 39 34 35 37 36 38 40 41 42 45 47 47 46 45 44 39 37 35 33 32 31 31 32 31 26 24 23 20 18 18 18 17 19 20 17 14 15 16 16 22 27 28 27 25 22 23 25 25 26 26 26 29 30 31 34 38 42 40 37 40 44 44 43 44 47 49 49 49 50 50 49 48 47 46 45
34 38 41 41 42 44 45 45 44 46 46 46 48 42 36 36 39 38 38 40 41 43 44 47 49 47 48 47 43 40 37 35 35 33 32 33 33 29 26 24 21 19 20 20 17 19 19 15 14 16 16 14 21 28 29 28 26 25 26 26 26 27 27 27 28 30 34 35 37 44 42 35 38 42 42 44 46 48 50 48 46 46 45 45 46 46 46 45
35 35 37 39 43 47 47 45 46 48 49 49 51 48 41 38 40 39 39 41 42 43 44 49 51 49 50 50 47 45 41 36 36 36 35 34 33 31 28 23 20 20 22 21 19 18 17 14 15 16 15 17 21 25 27 28 27 27 27 27 28 28 27 29 32 34 35 33 34 40 40 35 38 41 41 43 45 47 49 46 42 42 42 42 44 45 46 46
37 35 34 34 39 45 47 46 46 49 51 52 53 51 45 41 40 39 40 41 44 44 44 49 52 51 51 51 51 51 45 38 36 39 38 36 33 32 29 23 20 22 22 20 19 18 16 16 19 19 17 19 21 21 23 26 26 26 28 29 29 30 30 32 35 36 36 35 36 40 39 37 38 40 41 43 44 46 48 45 43 42 41 41 43 44 45 46
41 39 36 35 36 38 41 44 46 49 51 51 50 50 46 44 42 41 41 41 43 45 44 47 50 51 52 53 52 51 48 41 39 40 41 38 35 32 29 25 22 22 22 19 18 18 15 17 22 22 21 20 20 21 24 26 28 28 29 32 32 33 35 34 35 38 37 36 40 42 40 39 39 39 41 42 43 45 48 48 46 44 43 43 43 44 45 46
45 42 39 38 38 36 37 40 43 45 48 48 50 52 50 48 45 43 43 41 40 43 45 46 48 49 51 52 51 49 48 45 41 40 39 38 35 32 29 27 26 25 22 19 18 18 18 20 23 22 22 22 21 23 26 27 28 29 30 33 33 33 35 34 35 37 35 35 41 40 35 37 39 40 40 41 42 44 47 50 50 48 47 46 45 47 47 46
46 45 43 41 40 37 36 38 39 41 44 46 49 52 52 51 47 43 44 42 38 40 44 47 48 49 50 51 50 48 48 47 44 40 39 37 35 33 30 28 28 27 23 20 20 21 21 21 23 23 25 25 25 26 27 26 29 31 31 33 33 33 34 33 35 37 37 37 39 37 35 39 41 41 44 46 46 47 49 52 51 50 50 49 48 48 48 46